Location: Unspecified
(0.0000°N, 0.0000°E)
Time: 14:37:18
(UTC+00:00)

deb Blok Kosmos - Visible Passes

Search period start: 14 November 2025 00:00
Search period end: 24 November 2025 00:00
Orbit: 1342 x 1640 km, 56.1° (Epoch: 13 November)

Date Brightness Start Highest point End Pass type
(mag) Time Alt. Az. Time Alt. Az. Time Alt. Az.
14 Nov ? 21:32:11 10° S 21:33:13 13° S 21:33:13 13° S visible
15 Nov ? 20:42:30 10° SSE 20:42:56 11° SSE 20:42:56 11° SSE visible
15 Nov ? 22:38:39 10° SSW 22:38:45 10° SSW 22:38:45 10° SSW visible
16 Nov ? 21:46:24 10° SSW 21:48:32 18° S 21:48:32 18° S visible
17 Nov ? 20:54:55 10° S 20:58:20 21° SSE 20:58:20 21° SSE visible
18 Nov ? 20:04:49 10° SSE 20:08:12 15° SE 20:08:12 15° SE visible
18 Nov ? 22:01:41 10° SSW 22:04:01 20° SSW 22:04:01 20° SSW visible
19 Nov ? 21:09:19 10° SSW 21:13:56 31° S 21:13:56 31° S visible
20 Nov ? 20:17:43 10° S 20:23:54 30° SSE 20:23:54 30° SSE visible
20 Nov ? 22:18:01 10° SW 22:19:45 16° SW 22:19:45 16° SW visible
21 Nov ? 19:27:16 10° SSE 19:33:30 18° ESE 19:33:55 18° ESE visible
21 Nov ? 21:24:46 10° SW 21:29:46 35° SW 21:29:46 35° SW visible
22 Nov ? 20:32:16 10° SSW 20:39:50 53° S 20:39:50 53° S visible
23 Nov ? 19:40:32 10° S 19:49:24 37° ESE 19:49:58 37° ESE visible
23 Nov ? 21:41:16 10° SW 21:45:49 28° WSW 21:45:49 28° WSW visible
